Regional Weather Roundup
Issued by NWS

Home | Current Version | Previous Version | Text Only | Print | Product List | Glossary On
Versions: 1 2 3 4 5 6 7 8 9 10 11 12 13 14 15 16 17 18 19 20 21 22 23 24 25 26 27 28 29 30 31 32 33 34 35 36 37 38 39 40 41 42 43 44 45 46 47 48 49 50
000
ASUS43 KTOP 102259
RWRKS

WEATHER ROUNDUP FOR KANSAS
NATIONAL WEATHER SERVICE GOODLAND KS
600 PM CDT THU JUL 10 2014

NOTE:  "FAIR" INDICATES FEW OR NO CLOUDS BELOW 12,000 FEET WITH NO
SIGNIFICANT WEATHER AND/OR OBSTRUCTIONS TO VISIBILITY.

KSZ001>006-013>018-027>032-041>047-110000-
NORTHWEST KANSAS

CITY           SKY/WX    TMP DP  RH WIND       PRES   REMARKS
GOODLAND       SUNNY     89  65  44 SE15G24   29.92F
HAYS           SUNNY     84  64  51 SE22G29   29.92S
HILL CITY      SUNNY     88  69  53 SE16G26   29.89F
RUSSELL        SUNNY     84  68  58 S18       29.92F
$$

KSZ061>065-074>080-084>089-110000-
SOUTHWEST KANSAS

CITY           SKY/WX    TMP DP  RH WIND       PRES   REMARKS
DODGE CITY     SUNNY     89  68  49 SE20G30   29.91F
ELKHART          N/A     96  56  26 SW10        N/A
GARDEN CITY    SUNNY     94  65  38 SE20      29.88F HX  96
GREAT BEND     MOSUNNY   84  70  61 SE20G25   29.92S
LIBERAL        SUNNY     99  55  23 SW16G25   29.91S HX  97
$$

KSZ066>073-081>083-090>101-110000-
SOUTHEAST KANSAS

CITY           SKY/WX    TMP DP  RH WIND       PRES   REMARKS
CHANUTE        SUNNY     82  64  54 SE13      30.01F
COFFEYVILLE    SUNNY     82  68  62 S8        30.00F
HUTCHINSON     MOSUNNY   84  69  60 SE16      29.96F
MEDICINE LODGE   N/A     83  70  64 SE15G24   29.93F
NEWTON         MOSUNNY   82  64  54 S13       30.01F
PARSONS        SUNNY     82  66  58 S8        30.02F
WICHITA INTL   MOSUNNY   83  68  60 SE17      29.97S
WICHITA JABRA  MOSUNNY   82  69  64 SE16      29.97F
WINFIELD       MOSUNNY   79  67  66 SE15G22   29.99F
$$

KSZ007>012-019>026-033>040-048>060-102>105-110000-
NORTHEAST KANSAS

CITY           SKY/WX    TMP DP  RH WIND       PRES   REMARKS
CONCORDIA      SUNNY     86  65  49 S15       29.94F
EMPORIA        SUNNY     83  63  50 S20       30.00S
LAWRENCE       SUNNY     82  67  60 S14       30.01F
MANHATTAN      SUNNY     87  62  43 SE14      29.97S
OLATHE IND     PTSUNNY   83  67  58 SE15G21   30.03F
OLATHE EXE     MOSUNNY   81  67  62 SE15      30.02F
SALINA         SUNNY     89  67  47 SE16      29.94F
TOPEKA BILLARD SUNNY     85  64  49 SE14G24   29.99F
TOPEKA FORBES  SUNNY     85  64  49 SE17      29.99F
$$


USA.gov is the U.S. government's official web portal to all federal, state and local government web resources and services.